FW6766 Weather Reports


Display with metric or nautical units.
time (UTC)temp
F
wind
direction
speed
MPH
gust
MPH
rain 1hr
in
rain 24hr
in
rain mn
in
humidity
%
barometer
mb
20260510203018 83 23 1.0 4.0 0.00 0.00 0.00 41 1017.4
20260510202017 83 203 3.0 5.0 0.00 0.00 0.00 36 1017.4
20260510201017 84 293 2.0 6.0 0.00 0.00 0.00 40 1017.5
20260510200017 84 203 3.0 5.0 0.00 0.00 0.00 40 1017.6
20260510195017 84 203 2.0 6.0 0.00 0.00 0.00 41 1017.7
20260510194057 84 203 1.0 3.0 0.00 0.00 0.00 42 1017.7
20260510193037 84 180 3.0 6.0 0.00 0.00 0.00 38 1017.7
20260510192018 84 203 1.0 4.0 0.00 0.00 0.00 39 1018.1
20260510191017 83 0.0 2.0 0.00 0.00 0.00 36 1018.0
20260510190017 83 0 2.0 5.0 0.00 0.00 0.00 39 1018.2
20260510185017 82 0.0 3.0 0.00 0.00 0.00 37 1018.1
20260510184037 82 248 1.0 3.0 0.00 0.00 0.00 38 1018.2
20260510183017 82 180 1.0 3.0 0.00 0.00 0.00 42 1018.3
20260510182017 83 225 2.0 7.0 0.00 0.00 0.00 37 1018.4
20260510181018 82 0 1.0 5.0 0.00 0.00 0.00 43 1018.4
20260510180017 82 203 1.0 5.0 0.00 0.00 0.00 39 1018.4
20260510175017 81 203 3.0 7.0 0.00 0.00 0.00 44 1018.6
20260510174036 81 0.0 0.0 0.00 0.00 0.00 43 1018.5
20260510173036 81 0.0 0.0 0.00 0.00 0.00 43 1018.6
20260510172037 81 23 1.0 5.0 0.00 0.00 0.00 42 1018.7
20260510171017 80 0.0 2.0 0.00 0.00 0.00 44 1018.9
20260510170017 80 180 1.0 2.0 0.00 0.00 0.00 47 1019.0
20260510165016 80 225 1.0 4.0 0.00 0.00 0.00 44 1018.9
20260510164016 80 225 1.0 4.0 0.00 0.00 0.00 48 1019.0
20260510163016 79 0 1.0 3.0 0.00 0.00 0.00 48 1019.0
20260510162016 78 0 1.0 3.0 0.00 0.00 0.00 47 1019.1
20260510161016 78 180 1.0 4.0 0.00 0.00 0.00 50 1019.1
20260510160017 77 203 2.0 6.0 0.00 0.00 0.00 51 1019.2
20260510155017 76 0 1.0 6.0 0.00 0.00 0.00 54 1019.2
20260510154016 75 0 1.0 3.0 0.00 0.00 0.00 56 1019.2
20260510153016 74 0 1.0 3.0 0.00 0.00 0.00 59 1019.3
20260510152016 73 23 1.0 5.0 0.00 0.00 0.00 63 1019.2
20260510151016 72 338 1.0 4.0 0.00 0.00 0.00 65 1019.1
20260510150016 71 0 2.0 4.0 0.00 0.00 0.00 69 1019.2
20260510145016 70 45 1.0 4.0 0.00 0.00 0.00 71 1019.1
20260510144017 69 0 2.0 9.0 0.00 0.00 0.00 73 1019.1
20260510143016 69 338 1.0 4.0 0.00 0.00 0.00 76 1019.1
20260510142016 68 180 1.0 2.0 0.00 0.00 0.00 78 1018.9
20260510141016 67 0 2.0 7.0 0.00 0.00 0.00 78 1018.8
20260510140036 66 0.0 0.0 0.00 0.00 0.00 84 1018.6
20260510135036 65 23 1.0 4.0 0.00 0.00 0.00 86 1018.6
20260510134016 65 23 1.0 5.0 0.00 0.00 0.00 86 1018.6
20260510133016 64 0.0 0.0 0.00 0.00 0.00 89 1018.6
20260510132016 63 23 1.0 5.0 0.00 0.00 0.00 91 1018.4
20260510131016 63 0.0 0.0 0.00 0.00 0.00 94 1018.5
20260510130016 62 0.0 0.0 0.00 0.00 0.00 94 1018.6
20260510125015 62 0.0 0.0 0.00 0.00 0.00 94 1018.5
20260510124016 62 0.0 0.0 0.00 0.00 0.00 95 1018.5
20260510123016 61 0.0 0.0 0.00 0.00 0.00 95 1018.4
20260510122016 61 0.0 0.0 0.00 0.00 0.00 95 1018.3
20260510121016 61 0.0 0.0 0.00 0.00 0.00 95 1018.1
20260510120016 61 0.0 0.0 0.00 0.00 0.00 95 1017.9
20260510115015 61 0.0 0.0 0.00 0.00 0.00 95 1017.8
20260510114015 61 0.0 0.0 0.00 0.00 0.00 96 1017.7
20260510113035 61 0.0 1.0 0.00 0.00 0.00 96 1017.6
20260510112015 60 0.0 0.0 0.00 0.00 0.00 95 1017.5
20260510111016 60 0.0 0.0 0.00 0.00 0.00 95 1017.5
20260510110015 60 0.0 0.0 0.00 0.00 0.00 95 1017.4
20260510105015 60 0.0 0.0 0.00 0.00 0.00 95 1017.3
20260510104015 61 0.0 0.0 0.00 0.00 0.00 95 1017.2
20260510103015 61 0.0 0.0 0.00 0.00 0.00 96 1017.0
20260510102015 61 0.0 0.0 0.00 0.00 0.00 96 1016.9
20260510101017 61 0.0 1.0 0.00 0.00 0.00 96 1016.9
20260510100018 60 0.0 4.0 0.00 0.00 0.00 96 1016.7
20260510095037 60 0.0 0.0 0.00 0.00 0.00 96 1016.8
20260510094017 59 0.0 0.0 0.00 0.00 0.00 96 1016.7
20260510093017 58 0.0 0.0 0.00 0.00 0.00 95 1016.4
20260510092017 58 0.0 0.0 0.00 0.00 0.00 95 1016.2
20260510091037 58 0.0 0.0 0.00 0.00 0.00 94 1016.1
20260510090018 58 0.0 0.0 0.00 0.00 0.00 94 1016.1
20260510085017 58 0.0 0.0 0.00 0.00 0.00 94 1016.1
20260510084017 58 0.0 0.0 0.00 0.00 0.00 94 1015.9
20260510083017 58 0.0 0.0 0.00 0.00 0.00 94 1015.8
20260510082017 58 0.0 0.0 0.00 0.00 0.00 94 1015.7
20260510081017 58 0.0 0.0 0.00 0.00 0.00 93 1015.7
20260510080017 59 0.0 0.0 0.00 0.00 0.00 93 1015.6
20260510075038 59 0.0 0.0 0.00 0.00 0.00 93 1015.7
20260510074017 59 0.0 0.0 0.00 0.00 0.00 93 1015.5
20260510073017 59 0.0 0.0 0.00 0.00 0.00 93 1015.5
20260510072037 59 0.0 0.0 0.00 0.00 0.00 93 1015.3
20260510071017 59 0.0 0.0 0.00 0.00 0.00 93 1015.3
20260510070017 60 0.0 0.0 0.00 0.00 0.00 93 1015.3
20260510065018 60 0.0 0.0 0.00 0.00 0.00 93 1015.4
20260510064017 60 0.0 0.0 0.00 0.00 0.00 93 1015.4
20260510063017 60 0.0 0.0 0.00 0.00 0.00 93 1015.3
20260510062037 60 0.0 0.0 0.00 0.00 0.00 92 1015.2
20260510061017 60 0.0 0.0 0.00 0.00 0.00 92 1015.3
20260510060016 60 0.0 0.0 0.00 0.00 0.00 92 1015.3
20260510055037 60 0.0 0.0 0.00 0.00 0.00 91 1015.4
20260510054017 61 0.0 0.0 0.00 0.00 0.00 91 1015.5
20260510053016 61 0.0 0.0 0.00 0.00 0.00 91 1015.7
20260510052016 61 0.0 0.0 0.00 0.00 0.00 90 1015.7
20260510051016 62 0.0 0.0 0.00 0.00 0.00 90 1015.7
20260510050016 62 0.0 0.0 0.00 0.00 0.00 89 1015.7
20260510045016 62 0.0 0.0 0.00 0.00 0.00 89 1015.7
20260510044016 63 0.0 0.0 0.00 0.00 0.00 88 1015.8
20260510043017 63 0.0 0.0 0.00 0.00 0.00 88 1015.8
20260510042036 63 0.0 0.0 0.00 0.00 0.00 87 1015.8
20260510041016 64 0.0 0.0 0.00 0.00 0.00 87 1015.9
20260510040016 64 0.0 0.0 0.00 0.00 0.00 87 1016.1
20260510035016 64 0.0 0.0 0.00 0.00 0.00 87 1016.1
20260510034036 64 0.0 0.0 0.00 0.00 0.00 86 1016.2
20260510033017 64 0.0 0.0 0.00 0.00 0.00 86 1016.0
20260510032016 64 0.0 0.0 0.00 0.00 0.00 86 1015.9
20260510031016 64 0.0 0.0 0.00 0.00 0.00 85 1015.9
20260510030016 64 0.0 0.0 0.00 0.00 0.00 84 1015.8
20260510025016 64 0.0 0.0 0.00 0.00 0.00 84 1015.6
20260510024016 65 0.0 0.0 0.00 0.00 0.00 84 1015.5
20260510023017 65 0.0 0.0 0.00 0.00 0.00 83 1015.2
20260510022017 65 0.0 0.0 0.00 0.00 0.00 82 1015.1
20260510021016 65 0.0 0.0 0.00 0.00 0.00 82 1015.0
20260510020016 65 225 1.0 3.0 0.00 0.00 0.00 82 1015.0
20260510015016 65 225 1.0 2.0 0.00 0.00 0.00 81 1014.8
20260510014016 65 180 1.0 2.0 0.00 0.00 0.00 81 1014.6
20260510013016 66 180 1.0 3.0 0.00 0.00 0.00 81 1014.7
20260510012016 66 180 1.0 4.0 0.00 0.00 0.00 80 1014.7
20260510011017 66 0.0 0.0 0.00 0.00 0.00 80 1014.5
20260510010016 66 0.0 0.0 0.00 0.00 0.00 79 1014.3
20260510005016 67 0.0 0.0 0.00 0.00 0.00 78 1014.3
20260510004015 67 0.0 0.0 0.00 0.00 0.00 77 1014.1
20260510003016 67 0.0 0.0 0.00 0.00 0.00 77 1014.1
20260510002016 68 0.0 2.0 0.00 0.00 0.00 76 1014.2
20260510001015 68 180 1.0 3.0 0.00 0.00 0.00 76 1013.9
20260510000016 68 0 1.0 3.0 0.00 0.00 0.00 75 1013.9
20260509235015 69 0.0 0.0 0.00 0.00 0.00 75 1013.9
20260509234036 69 0.0 0.0 0.00 0.00 0.00 73 1013.9
20260509233016 70 0.0 0.0 0.00 0.00 0.00 72 1013.6
20260509232015 70 0.0 0.0 0.00 0.00 0.00 71 1013.4
20260509231015 71 0.0 0.0 0.00 0.00 0.00 71 1013.5
20260509230015 71 0.0 4.0 0.00 0.00 0.00 71 1013.4
20260509225016 71 203 1.0 5.0 0.00 0.00 0.00 69 1013.4
20260509224035 72 0.0 0.0 0.00 0.00 0.00 68 1013.4
20260509223015 72 0.0 0.0 0.00 0.00 0.00 64 1013.4
20260509222015 72 0.0 0.0 0.00 0.00 0.00 64 1013.1
20260509221015 73 0.0 0.0 0.00 0.00 0.00 63 1013.2
20260509220018 73 0.0 0.0 0.00 0.00 0.00 65 1013.1
20260509215018 73 0.0 0.0 0.00 0.00 0.00 62 1013.2
20260509214017 73 0.0 2.0 0.00 0.00 0.00 67 1013.2
20260509213017 73 0.0 1.0 0.00 0.00 0.00 67 1012.9
20260509212017 73 0.0 1.0 0.00 0.00 0.00 64 1012.7
20260509211017 74 180 1.0 6.0 0.00 0.00 0.00 62 1012.7
20260509210017 74 0.0 2.0 0.00 0.00 0.00 61 1012.9
20260509205037 75 203 1.0 3.0 0.00 0.00 0.00 60 1012.8
20260509204018 74 180 1.0 2.0 0.00 0.00 0.00 61 1013.0